Weather History for Surat Thani, Thailand

Change the Weather History Date:

Thursday, September 12, 2013

  Actual Average Record
Temperature  
Mean Temperature 82 °F -  
Max Temperature 92 °F 89 °F - ()
Min Temperature 73 °F 73 °F - ()
Cooling Degree Days 18    
Growing Degree Days 32 (Base 50)    
Moisture  
Dew Point 76 °F    
Average Humidity 90    
Maximum Humidity 100    
Minimum Humidity 57    
Precipitation  
Precipitation 0.00 in 0.28 in - ()
Sea Level Pressure  
Sea Level Pressure 29.77 in    
Wind  
Wind Speed 5 mph ()    
Max Wind Speed 14 mph    
Max Gust Speed -    
Visibility 5.2 miles    
Events Rain    
T = Trace of Precipitation, MM = Missing Value Source: Averaged Metar Reports

Daily Weather History Graph

Daily Weather History Graph

Search for Another Location

Airport:

Trip Planner

Search our weather history database for the weather conditions in past years. The results will help you decide how hot, cold, wet, or windy it might be!

Date:

Astronomy

Sep. 12, 2013 Rise Set
Actual Time 6:13 AM ICT 6:25 PM ICT
Civil Twilight 5:52 AM ICT 6:46 PM ICT
Nautical Twilight 5:28 AM ICT 7:11 PM ICT
Astronomical Twilight 5:03 AM ICT 7:35 PM ICT
Moon 11:59 AM ICT (9/12) No Moon Set
Length of Visible Light 12h 53m
Length of Day
12h 11m
Waxing Crescent, 44% of the Moon is Illuminated
Sep 12
Waxing Crescent
Sep 13
First Quarter
Sep 19
Full
Sep 27
Last Quarter
Oct 5
New

Hourly Weather History & Observations

Time (ICT) Temp. Heat Index Dew Point Humidity Pressure Visibility Wind Dir Wind Speed Gust Speed Precip Events Conditions
12:00 AM 75.2 °F - 75.2 °F 100% 29.80 in 5.0 mi SSW 5.8 mph - N/A   Overcast
1:00 AM 76 °F - 75 °F 96% 29.79 in 4 mi South 3.5 mph - -   Mist
1:00 AM 75.2 °F - 75.2 °F 100% 29.77 in 4.3 mi South 5.8 mph - N/A   Overcast
6:00 AM 73.4 °F - 73.4 °F 100% 29.77 in 3.1 mi South 5.8 mph - N/A   Overcast
7:00 AM 75 °F - 74 °F 96% 29.77 in 5 mi Calm Calm - -   Mist
7:00 AM 73.4 °F - 73.4 °F 100% 29.77 in 5.0 mi SSW 4.6 mph - N/A   Mostly Cloudy
8:00 AM 77.0 °F - 77.0 °F 100% 29.77 in 6.2 mi South 6.9 mph - N/A   Mostly Cloudy
9:00 AM 78.8 °F - 77.0 °F 94% 29.80 in 6.2 mi South 8.1 mph - N/A   Mostly Cloudy
10:00 AM 82.4 °F 90.9 °F 77.0 °F 84% 29.81 in 6.2 mi South 6.9 mph - N/A   Mostly Cloudy
11:00 AM 82.4 °F 90.9 °F 77.0 °F 84% 29.80 in 6.2 mi SSW 6.9 mph - N/A   Overcast
12:00 PM 86.0 °F 96.9 °F 77.0 °F 74% 29.78 in 6.2 mi SSW 6.9 mph - N/A   Overcast
1:00 PM 90 °F - 76 °F 57% 29.76 in 7 mi WSW 5.8 mph - -   Scattered Clouds
1:00 PM 87.8 °F 97.6 °F 75.2 °F 66% 29.75 in 6.2 mi SW 10.4 mph - N/A   Mostly Cloudy
2:00 PM 87.8 °F 97.6 °F 75.2 °F 66% 29.73 in 6.2 mi WSW 12.7 mph - N/A   Mostly Cloudy
3:00 PM 78.8 °F - 75.2 °F 89% 29.74 in 4.3 mi SW 13.8 mph - N/A Rain Light Rain
4:00 PM 82.4 °F 89.5 °F 75.2 °F 79% 29.71 in 5.0 mi WSW 6.9 mph - N/A   Mostly Cloudy
5:00 PM 78.8 °F - 78.8 °F 100% 29.71 in 5.0 mi SSE 8.1 mph - N/A   Mostly Cloudy
6:00 PM 78.8 °F - 77.0 °F 94% 29.74 in 5.0 mi South 8.1 mph - N/A   Overcast
7:00 PM 79 °F - 75 °F 85% 29.78 in 6 mi South 4.6 mph - -   Partly Cloudy
7:00 PM 75.2 °F - 75.2 °F 100% 29.77 in 4.3 mi South 5.8 mph - N/A   Overcast
8:00 PM 75.2 °F - 75.2 °F 100% 29.80 in 4.3 mi South 4.6 mph - N/A   Overcast
9:00 PM 75.2 °F - 75.2 °F 100% 29.83 in 4.3 mi Calm Calm - N/A   Overcast
10:00 PM 75.2 °F - 75.2 °F 100% 29.86 in 4.3 mi South 5.8 mph - N/A   Overcast